Regional Weather Roundup
Issued by NWS State College, PA

Home | Current Version | Previous Version | Graphics & Text | Print | Product List | Glossary On
Versions: 1 2 3 4 5 6 7 8 9 10 11 12 13 14 15 16 17 18 19 20 21 22 23 24 25 26 27 28 29 30 31 32 33 34 35 36 37 38 39 40 41 42 43 44 45 46 47 48 49 50
000
ASUS41 KCTP 301603
RWRCTP

REGIONAL WEATHER ROUNDUP
NATIONAL WEATHER SERVICE STATE COLLEGE PA
1200 PM EDT SAT MAY 30 2015

Note: "fair" indicates few or no clouds below 12,000 feet with no
significant weather and/or obstructions to visibility.

* = STATION THAT DOES NOT REPORT PRECIPITATION /E.G. RAIN...SNOW...ETC/
    THUNDER OR FOG.

PAZ002>004-007>009-013>016-020>023-029>032-301700-
WESTERN PENNSYLVANIA

CITY           SKY/WX    TMP DP  RH WIND       PRES   REMARKS
ERIE           CLOUDY    81  66  60 SW10G18   30.03F
MEADVILLE      MOSUNNY   77  64  64 SW12      30.08F
FRANKLIN*      PTSUNNY   79  63  57 SW9       30.11F
NEW CASTLE     PTSUNNY   80  69  69 S8        30.10S
BEAVER COUNTY  PTSUNNY   79  66  65 SW6G16    30.11F
BUTLER*        MOSUNNY   81  64  57 SW8       30.12F
PITTSBURGH INT PTSUNNY   80  64  58 SW12G20   30.11F
PITTSBURGH     MOSUNNY   80  62  54 S13       30.12S
INDIANA*       MOSUNNY   81  66  61 SW12      30.17S
LATROBE        MOSUNNY   81  66  61 S12       30.16S
WASHINGTON CO* PTSUNNY   79  66  65 SW8G16    30.14F
$$

PAZ004>006-010>012-017>019-024>028-033>037-041-042-045-046-049>053-301700-
CENTRAL PENNSYLVANIA

CITY           SKY/WX    TMP DP  RH WIND       PRES   REMARKS
BRADFORD       MOSUNNY   76  62  62 W10       30.13F
DUBOIS         PTSUNNY   80  65  59 SW8       30.13F
CLEARFIELD     PTSUNNY   79  64  60 SW8G17    30.14F
JOHNSTOWN      MOSUNNY   76  62  62 SW12G18   30.18F
ALTOONA        MOSUNNY   80  63  55 S12       30.17S
STATE COLLEGE  MOSUNNY   81  64  57 SW7       30.14S
WILLIAMSPORT   MOSUNNY   83  67  58 SE9       30.09F
SELINSGROVE    PTSUNNY   83  67  58 S13G18    30.13F
FT INDIANTOWN  MOSUNNY   81  68  65 VRB6      30.15F
CAPITAL CITY   SUNNY     82  66  58 S13       30.13F
HARRISBURG     MOSUNNY   83  66  56 S13G22    30.13F
YORK           SUNNY     81  68  64 SW7       30.15F
$$

PAZ038>040-043-044-047-048-054-055-060>062-067>071-301700-
EASTERN PENNSYLVANIA

CITY           SKY/WX    TMP DP  RH WIND       PRES   REMARKS
SCRANTON       PTSUNNY   80  65  59 SW5       30.14F
MOUNT POCONO   CLOUDY    74  63  68 S12G18    30.22S
ALLENTOWN      MOSUNNY   83  66  56 SE8       30.16F
QUAKERTOWN*    MOSUNNY   82  66  57 S8        30.19F
READING        MOSUNNY   85  65  51 S14G20    30.14F
LANCASTER      MOSUNNY   84  65  52 S13       30.15F
COATESVILLE    MOSUNNY   81  68  65 S7        30.19F
POTTSTOWN      MOSUNNY   82  67  60 VRB5G16   30.18F
BLUE BELL      MOSUNNY   81  68  65 SW10      30.18S
DOYLESTOWN     MOSUNNY   79  65  62 S10       30.17F
WILLOW GROVE   NOT AVBL
NORTH PHILA    MOSUNNY   82  64  54 SW10G21   30.19F
PHILADELPHIA   MOSUNNY   82  67  60 SW13      30.18F
$$


USA.gov is the U.S. government's official web portal to all federal, state and local government web resources and services.